sat.trackr.live / text

‹ back to catalog

JCSAT-2B

NORAD 41471 · 2016-028A

PAYLOAD ACTIVE UNKNOWN

§ Identity

Operator
Country
JPN
Launch date
2016-05-06
Launch site
AFETR
Launch vehicle
Mass (kg)
RCS (m²)
9.86

Purposes: comms

External: N2YO · Heavens-Above · Gunter

§ Orbital elements

Epoch: 2026-05-25T04:54:38.767104Z

Period
1,436.12 min
Inclination
0.0178°
Eccentricity
0.0001072
Mean motion
1.00270140 rev/d
Perigee alt
35,782.5 km
Apogee alt
35,791.6 km
Semi-major
42,165.2 km
B*
0.0000e+0
RAAN
317.9486°
Arg perigee
106.9075°
Mean anomaly
45.6001°
Rev number
3,690

§ Raw data

JCSAT-2B1 41471U 16028A   26145.20461536 -.00000168  00000+0  00000+0 0  99932 41471   0.0178 317.9486 0001072 106.9075  45.6001  1.00270140 36900

JSON: /api/v1/satellites/41471 · /tle

For live sub-satellite position, see the globe view (requires WebGL).

§ Visibility from observer

Set your observer location to see the next 7 days of passes ≥ 10°. The values pass through the URL so the page stays shareable.

No JS? Fill the form by hand. The geolocation button needs JavaScript.